Location: Unspecified
(0.0000°N, 0.0000°E)
Time: 09:09:18
(UTC+01:00)

GPS 2-15 Rocket1 - Visible Passes

Search period start: 24 March 2017 00:00
Search period end: 03 April 2017 01:00
Orbit: 625 x 676 km, 19.8° (Epoch: 22 March)

Date Brightness Start Highest point End Pass type
(mag) Time Alt. Az. Time Alt. Az. Time Alt. Az.
24 Mar 3.7 05:21:30 48° NNE 05:21:30 48° NNE 05:25:13 10° ENE visible
25 Mar 4.1 05:46:24 28° NW 05:47:04 30° NNW 05:51:08 10° NE visible
25 Mar 5.8 19:44:01 10° SSW 19:44:59 10° SSW 19:45:57 10° S visible
26 Mar 6.1 05:33:35 11° NE 05:33:35 11° NE 05:33:46 10° NE visible
26 Mar 5.0 07:11:14 13° NW 07:13:36 17° NNW 07:16:42 10° NNE visible
27 Mar 5.5 05:58:23 16° NNE 05:58:23 16° NNE 05:59:39 10° NE visible
27 Mar 5.4 07:39:09 10° NNW 07:40:17 11° NNW 07:41:23 10° N visible
28 Mar 5.2 06:23:09 15° N 06:23:09 15° N 06:25:08 10° NNE visible
29 Mar 5.5 06:48:21 10° NNW 06:48:54 10° NNW 06:49:27 10° N visible
01 Apr 5.9 22:05:17 10° SSW 22:05:22 10° SSW 22:05:22 10° SSW visible
02 Apr 5.5 20:49:14 10° S 20:49:53 10° SSE 20:50:33 10° SSE visible
